Temp
16 17 17 17 18 18 18 18 18 18 19 19 19 20 20 21 22 22 22 23 23 23 23 23 24 25 26 28 26 26 23 22 22 22 21 25 27 26 27 26 26 26 25 24 22
16 16 17 17 18 18 18 19 18 18 19 19 20 20 20 21 22 21 23 23 23 23 23 24 26 26 28 29 28 28 25 26 28 23 22 25 25 27 27 27 26 26 24 23 22
16 17 17 17 18 18 19 19 19 19 19 19 19 20 21 21 21 25 23 24 24 23 23 25 26 27 29 29 29 28 26 28 25 25 23 22 25 26 27 27 27 25 24 23 22
16 16 17 17 18 19 19 19 19 19 20 20 20 20 21 21 27 24 24 24 23 23 24 25 27 29 31 30 29 27 26 27 25 23 24 23 23 26 25 21 27 25 24 23 23
16 17 17 18 18 19 19 20 20 20 20 20 20 21 21 22 25 23 23 23 23 23 25 26 28 29 31 30 29 28 27 26 24 22 21 22 23 25 25 26 26 25 24 24 24
16 17 17 18 19 19 20 20 21 21 21 21 21 22 22 26 23 22 22 22 24 24 26 27 28 29 30 30 28 28 27 26 25 23 21 20 20 24 25 26 26 25 25 24 25
16 17 18 18 19 20 20 21 21 21 21 21 22 22 21 25 23 23 23 24 24 25 27 27 27 28 30 30 28 27 27 27 26 25 20 18 19 23 24 26 26 26 25 25 25
17 17 18 19 20 21 21 21 21 22 22 22 22 22 25 23 23 23 24 24 24 25 26 26 26 28 29 28 29 27 27 21 26 25 22 20 20 18 23 25 26 26 24 25 24
17 17 18 19 20 21 21 22 22 22 22 22 22 22 26 23 23 24 24 24 24 25 25 25 26 28 29 30 30 29 24 26 26 27 25 23 19 21 21 23 24 26 25 24 24
17 17 18 19 20 21 22 22 22 22 22 22 22 23 25 26 25 24 24 25 25 25 26 26 28 30 31 31 23 18 27 29 25 27 27 25 24 22 20 23 21 24 25 25 24
17 17 18 19 20 21 22 22 20 20 21 26 27 27 27 26 25 25 25 26 26 26 28 28 29 30 31 32 29 29 24 29 29 28 27 27 26 24 22 23 23 24 26 25 24
17 17 18 19 20 21 21 23 24 23 26 27 26 27 27 26 26 26 25 27 27 28 29 29 29 31 32 32 31 29 28 29 29 29 28 28 27 25 23 23 23 23 24 26 26
17 17 18 19 20 21 21 23 22 23 26 28 27 27 27 26 28 27 26 27 28 28 30 29 31 31 30 30 30 31 30 30 29 29 29 29 28 28 25 24 24 25 25 26 25
16 17 18 19 20 20 22 22 22 22 27 30 28 28 27 27 29 28 27 28 29 29 30 30 31 30 30 29 31 30 32 30 29 29 22 22 21 26 28 27 26 25 25 25 25
16 17 17 18 19 21 21 21 22 23 27 30 30 29 28 28 29 28 27 28 29 29 30 29 29 30 29 30 31 31 31 31 30 30 25 23 24 18 27 28 28 28 28 27 25
16 16 18 18 19 19 20 21 22 26 27 30 29 29 29 29 30 28 28 28 29 30 29 30 30 31 30 31 31 32 31 30 30 31 29 32 31 26 28 30 29 29 28 28 25
16 17 18 18 20 19 20 22 26 27 31 30 30 30 30 30 30 29 28 28 28 27 28 29 30 31 30 30 31 31 30 29 29 30 30 30 30 30 29 31 31 30 29 28 28
16 17 18 19 17 18 20 25 25 30 31 32 31 31 30 31 30 30 29 29 29 30 31 29 28 30 31 31 30 30 31 30 26 27 27 30 29 30 31 30 30 28 28 26 26
17 17 17 18 17 17 21 25 27 29 31 31 31 30 30 31 31 30 30 30 31 30 29 30 30 32 32 32 32 30 30 33 29 30 29 26 30 31 31 31 29 29 27 27 26
17 18 20 17 17 18 23 23 28 30 29 30 29 30 30 31 30 30 30 31 31 31 32 31 30 31 31 32 32 31 32 30 31 27 27 30 30 30 29 30 30 29 28 27 25
17 21 19 18 18 21 24 26 28 28 27 28 29 30 30 31 31 30 30 32 32 31 31 31 31 30 31 30 30 30 30 31 31 31 30 29 30 32 31 30 30 29 28 27 26
17 24 19 18 22 24 26 27 25 28 28 28 29 29 30 31 31 30 31 31 31 32 30 31 32 30 30 32 32 32 31 31 30 28 31 30 29 31 31 31 30 28 26 25 24
17 21 20 19 23 26 27 27 26 27 28 28 28 29 30 29 28 30 31 32 31 32 31 31 30 29 28 31 31 30 31 31 32 32 28 28 28 30 29 28 28 26 25 24 23
17 23 22 21 22 24 25 26 26 26 26 27 28 28 28 28 29 28 30 31 30 31 27 29 30 30 29 28 29 30 30 31 31 30 30 30 28 28 28 27 27 26 24 24 23
18 22 20 24 24 24 24 24 24 25 26 26 26 27 27 27 28 28 29 30 30 27 29 30 28 29 31 30 30 31 31 31 30 30 30 30 30 29 29 28 28 26 25 24 23
16 18 19 20 21 21 20 23 23 25 25 25 25 26 27 26 27 27 29 29 29 31 29 31 28 29 29 31 31 30 31 31 31 31 30 31 30 31 29 28 27 26 24 24 23
14 14 15 19 21 22 23 24 23 23 23 23 24 25 25 26 26 26 26 27 28 28 29 29 29 29 27 29 30 29 30 31 31 31 31 29 30 31 28 28 27 26 24 24 23
Height
1519 1517 1515 1513 1511 1510 1509 1508 1507 1505 1503 1502 1502 1502 1502 1502 1503 1504 1506 1507 1506 1506 1508 1511 1511 1510 1507 1502 1504 1502 1504 1507 1511 1509 1517 1510 1507 1509 1511 1514 1515 1517 1520 1528 1535
1519 1517 1515 1513 1511 1510 1509 1508 1506 1505 1503 1502 1501 1501 1501 1501 1502 1504 1505 1504 1505 1506 1508 1511 1509 1508 1500 1497 1498 1495 1502 1499 1495 1508 1514 1511 1510 1507 1510 1512 1517 1519 1524 1531 1536
1520 1517 1515 1513 1511 1510 1509 1508 1507 1505 1504 1503 1502 1501 1501 1501 1504 1500 1501 1502 1504 1506 1509 1510 1508 1506 1496 1495 1495 1494 1497 1498 1505 1507 1514 1515 1509 1509 1508 1512 1513 1522 1528 1532 1536
1521 1518 1516 1514 1512 1510 1509 1508 1507 1506 1505 1504 1503 1502 1501 1501 1496 1498 1499 1501 1504 1506 1510 1509 1507 1502 1493 1490 1493 1497 1501 1502 1509 1513 1513 1517 1518 1511 1511 1521 1514 1522 1528 1533 1536
1521 1518 1516 1514 1512 1510 1509 1508 1507 1506 1505 1504 1503 1503 1502 1502 1498 1498 1499 1501 1504 1507 1508 1507 1504 1498 1489 1490 1492 1493 1502 1505 1510 1516 1519 1520 1520 1515 1515 1515 1517 1522 1528 1532 1534
1521 1518 1516 1513 1511 1510 1508 1507 1507 1506 1505 1505 1504 1503 1502 1499 1499 1499 1501 1502 1506 1507 1507 1506 1502 1501 1495 1490 1493 1494 1501 1504 1507 1515 1520 1521 1522 1518 1514 1516 1519 1523 1528 1530 1532
1521 1518 1515 1513 1511 1509 1508 1507 1506 1506 1505 1505 1504 1502 1502 1499 1500 1501 1502 1504 1506 1507 1506 1505 1505 1502 1494 1488 1494 1497 1497 1496 1500 1508 1521 1521 1526 1518 1516 1517 1519 1521 1526 1529 1533
1521 1518 1515 1512 1510 1508 1507 1506 1505 1505 1505 1504 1503 1502 1497 1499 1500 1500 1501 1503 1505 1506 1506 1505 1505 1502 1494 1493 1491 1493 1489 1504 1498 1505 1519 1525 1534 1527 1514 1517 1518 1520 1527 1529 1533
1521 1517 1514 1511 1509 1507 1506 1505 1504 1503 1503 1503 1503 1502 1494 1497 1498 1499 1500 1501 1503 1505 1505 1505 1504 1498 1492 1485 1483 1483 1508 1495 1496 1497 1509 1518 1533 1527 1523 1521 1518 1518 1524 1530 1534
1520 1517 1513 1510 1507 1506 1505 1504 1502 1501 1501 1501 1501 1504 1496 1492 1495 1497 1498 1499 1501 1503 1505 1504 1500 1491 1485 1476 1516 1524 1498 1482 1501 1497 1499 1509 1515 1520 1522 1518 1519 1513 1521 1528 1532
1519 1516 1512 1509 1506 1504 1504 1503 1503 1502 1500 1491 1490 1488 1490 1492 1495 1496 1497 1498 1500 1501 1497 1497 1494 1489 1474 1470 1481 1488 1501 1483 1483 1490 1494 1496 1501 1511 1516 1513 1513 1510 1516 1522 1529
1517 1514 1510 1507 1504 1503 1503 1503 1501 1502 1493 1487 1489 1488 1489 1491 1492 1494 1497 1496 1496 1494 1491 1491 1493 1477 1471 1473 1475 1482 1488 1487 1485 1487 1488 1489 1496 1502 1510 1511 1510 1514 1517 1519 1521
1514 1512 1509 1506 1503 1502 1503 1503 1501 1500 1491 1478 1483 1485 1487 1490 1486 1488 1493 1491 1490 1489 1485 1485 1478 1477 1479 1481 1482 1474 1479 1484 1488 1484 1486 1487 1492 1491 1503 1509 1511 1513 1515 1517 1522
1512 1509 1507 1504 1504 1503 1502 1501 1501 1500 1486 1468 1476 1479 1482 1485 1482 1482 1488 1489 1485 1484 1480 1483 1477 1482 1485 1486 1480 1479 1470 1477 1488 1489 1522 1505 1529 1486 1488 1498 1504 1508 1512 1514 1517
1509 1506 1505 1502 1501 1502 1501 1501 1500 1500 1493 1465 1467 1472 1477 1478 1474 1482 1485 1486 1482 1481 1481 1481 1480 1480 1486 1482 1478 1476 1477 1475 1481 1483 1498 1507 1506 1522 1482 1493 1493 1496 1498 1504 1510
1506 1502 1501 1500 1498 1499 1498 1500 1501 1496 1487 1459 1464 1469 1471 1473 1471 1477 1483 1484 1480 1476 1479 1472 1474 1475 1475 1475 1475 1473 1476 1477 1477 1475 1490 1462 1473 1496 1483 1475 1473 1486 1494 1498 1504
1502 1499 1497 1497 1498 1496 1498 1500 1494 1486 1451 1455 1460 1461 1464 1465 1467 1475 1478 1480 1480 1488 1482 1475 1472 1473 1473 1472 1471 1473 1479 1489 1493 1486 1484 1470 1478 1471 1478 1475 1475 1484 1490 1495 1499
1498 1495 1492 1491 1493 1494 1497 1495 1491 1456 1450 1444 1449 1454 1462 1456 1462 1467 1471 1474 1471 1466 1462 1471 1481 1468 1466 1467 1470 1472 1471 1474 1511 1501 1494 1470 1483 1469 1468 1476 1480 1488 1492 1498 1501
1494 1494 1493 1493 1491 1492 1495 1487 1472 1457 1447 1448 1451 1451 1455 1451 1454 1458 1462 1460 1457 1463 1469 1460 1462 1454 1460 1461 1459 1468 1475 1452 1477 1474 1481 1494 1468 1463 1466 1474 1481 1486 1493 1496 1500
1491 1492 1491 1489 1488 1492 1489 1478 1459 1452 1458 1454 1455 1451 1454 1450 1454 1453 1454 1450 1452 1454 1455 1450 1463 1452 1458 1460 1458 1457 1455 1471 1461 1500 1502 1468 1467 1472 1473 1473 1476 1483 1490 1495 1499
1492 1488 1487 1487 1488 1488 1478 1466 1458 1456 1463 1460 1453 1447 1444 1441 1442 1449 1451 1444 1447 1450 1455 1451 1452 1463 1455 1464 1461 1464 1467 1459 1456 1456 1473 1478 1470 1445 1457 1465 1474 1482 1488 1493 1497
1494 1483 1486 1486 1485 1475 1467 1461 1461 1456 1458 1460 1456 1450 1445 1442 1441 1442 1443 1441 1443 1446 1452 1451 1446 1459 1457 1448 1449 1449 1453 1454 1467 1478 1460 1462 1471 1455 1459 1465 1472 1481 1491 1494 1498
1495 1486 1485 1485 1474 1461 1460 1459 1462 1462 1457 1456 1456 1453 1449 1450 1454 1445 1439 1437 1441 1445 1449 1449 1456 1463 1469 1451 1450 1455 1450 1448 1446 1444 1475 1479 1473 1460 1467 1471 1476 1485 1491 1495 1497
1497 1478 1477 1480 1475 1470 1460 1459 1458 1459 1460 1456 1454 1453 1452 1453 1449 1449 1442 1438 1446 1446 1449 1449 1446 1450 1460 1456 1454 1456 1453 1448 1450 1460 1457 1459 1465 1464 1468 1472 1479 1485 1490 1493 1496
1495 1480 1483 1467 1467 1469 1467 1465 1459 1457 1455 1456 1455 1455 1453 1454 1450 1449 1446 1441 1444 1447 1449 1449 1455 1446 1436 1441 1443 1438 1443 1445 1453 1452 1458 1450 1457 1456 1462 1468 1475 1482 1488 1491 1494
1499 1494 1486 1481 1476 1475 1471 1466 1462 1458 1455 1454 1456 1450 1449 1453 1449 1448 1444 1444 1441 1436 1444 1444 1453 1447 1446 1429 1440 1442 1437 1440 1443 1445 1450 1448 1453 1450 1458 1466 1473 1480 1486 1489 1492
1502 1500 1497 1482 1474 1468 1462 1459 1460 1461 1463 1461 1457 1454 1453 1453 1453 1451 1447 1445 1441 1443 1439 1441 1440 1446 1454 1442 1434 1448 1439 1439 1440 1441 1444 1454 1451 1450 1463 1467 1472 1479 1484 1487 1490
Wind_Speed
12 11 9 8 6 5 5 6 8 9 8 6 4 4 5 7 9 9 7 8 10 10 9 7 8 6 6 7 3 7 3 7 5 6 4 6 11 6 13 16 8 4 18 22 21
14 12 11 9 7 5 5 7 8 8 6 3 0 2 4 6 8 12 12 15 12 11 9 10 9 7 16 4 1 10 5 9 9 9 10 7 4 12 13 14 11 13 19 22 21
15 14 12 10 7 5 5 6 6 6 6 6 5 2 4 7 3 8 16 12 14 12 8 10 7 8 13 7 3 3 4 3 9 8 15 2 6 5 12 6 15 17 22 22 20
15 14 13 11 8 5 5 5 4 5 5 6 6 3 6 8 2 4 12 13 13 12 8 10 10 13 9 3 6 2 5 4 10 11 11 11 2 4 9 8 12 18 19 21 18
16 15 13 11 8 6 5 3 2 3 4 5 7 3 5 7 4 2 9 12 12 9 9 11 11 10 11 2 3 6 7 9 12 11 10 7 5 4 6 7 9 19 18 19 17
17 16 14 12 9 6 4 3 2 2 2 3 5 1 4 13 4 4 9 11 9 9 9 10 8 4 9 5 4 8 10 11 10 11 6 4 2 3 6 10 15 19 19 17 17
17 16 15 13 9 6 4 2 2 3 2 2 3 2 7 2 4 6 10 11 10 9 9 9 6 10 5 4 6 12 10 12 11 10 5 11 7 4 9 14 16 19 18 14 14
17 17 16 13 9 6 3 2 4 4 3 2 4 4 2 3 5 7 11 12 12 10 8 8 8 12 9 5 7 9 9 4 11 14 15 10 10 3 8 8 14 18 16 16 16
18 18 17 15 11 6 4 5 4 5 5 4 2 5 5 3 7 8 10 13 13 12 10 7 8 16 7 14 14 8 6 8 10 9 13 9 3 9 8 10 12 20 21 16 16
18 18 17 16 12 7 4 6 6 7 5 6 6 8 8 7 10 8 8 11 16 14 11 12 11 13 12 15 4 4 10 5 13 10 15 15 11 15 13 17 14 14 21 20 18
19 18 17 17 14 6 4 8 6 4 11 16 2 6 7 8 9 10 10 13 15 16 15 18 12 14 18 5 5 11 13 1 7 11 11 12 14 15 18 18 13 7 19 24 22
20 18 17 16 13 5 3 5 4 6 10 12 13 9 4 9 10 12 12 13 15 15 18 11 14 15 13 8 8 9 4 3 5 8 9 8 12 18 20 18 18 18 17 19 22
20 19 17 14 9 2 5 7 4 9 9 13 14 15 14 11 13 16 16 16 14 16 17 14 14 14 3 9 12 11 8 3 3 6 10 5 14 15 19 19 18 20 20 16 16
20 19 17 11 5 5 6 7 5 8 6 16 15 12 16 13 10 12 16 12 10 14 14 13 17 6 10 13 13 18 12 5 4 10 2 19 2 10 17 15 20 24 24 22 21
20 19 15 13 10 4 3 4 6 5 6 14 16 14 17 15 14 12 14 14 12 12 10 15 13 14 14 16 15 15 9 3 6 11 13 13 5 3 13 16 16 19 24 24 25
19 19 15 11 8 9 8 5 5 7 9 11 12 14 16 19 11 14 15 14 11 9 12 18 7 12 16 15 16 17 7 7 10 14 10 10 7 14 10 9 14 22 17 20 28
18 17 14 10 3 5 5 7 7 10 6 11 15 17 18 15 12 12 15 15 11 11 14 15 14 11 11 12 16 17 13 11 10 11 8 4 7 9 15 3 7 9 7 8 12
18 16 12 7 7 7 7 10 12 7 16 4 15 17 18 15 14 16 16 15 17 19 12 12 16 17 11 18 11 17 18 12 7 4 9 5 5 7 10 9 8 8 8 7 8
17 7 4 3 6 8 13 12 11 13 6 5 11 15 19 18 10 16 16 15 16 16 16 7 7 17 16 16 12 16 18 22 10 20 12 11 4 12 12 9 11 10 8 7 5
17 5 7 7 9 10 10 17 16 8 6 8 16 16 17 18 15 14 14 14 14 14 18 5 8 13 11 12 13 12 11 13 10 10 11 7 7 6 10 10 10 10 9 7 4
7 7 4 1 8 13 12 17 17 12 9 12 14 20 14 18 20 17 13 10 14 14 15 14 10 4 12 12 14 12 12 12 12 11 9 9 7 9 11 13 9 9 6 6 4
6 4 1 5 10 15 12 18 5 10 9 15 10 16 13 14 17 13 17 13 15 18 19 16 10 12 16 19 17 11 16 17 9 13 9 10 5 6 7 5 9 10 7 5 2
8 11 4 7 7 9 12 9 12 13 16 12 16 14 13 14 10 15 19 10 6 15 11 13 12 12 6 13 13 12 13 12 12 11 13 12 6 8 10 9 9 12 8 6 3
7 4 9 11 16 12 13 9 14 15 16 17 14 14 14 14 15 12 15 8 6 16 2 10 14 16 13 7 8 18 18 16 15 9 9 9 13 13 11 11 12 10 9 8 5
6 1 5 4 4 7 10 12 11 13 13 14 15 18 18 17 16 17 17 16 13 11 14 15 16 20 19 18 13 12 16 17 14 16 15 10 6 15 13 9 12 11 10 9 6
8 7 7 17 14 11 11 13 15 15 12 10 14 16 15 18 16 16 18 19 20 12 14 18 17 20 20 19 17 13 10 8 11 12 13 15 7 9 11 8 9 11 11 10 8
7 10 9 11 11 11 12 11 9 8 10 15 16 12 7 6 11 15 20 16 11 10 10 17 17 18 17 23 15 14 15 12 12 14 12 11 7 8 8 8 9 12 12 11 8
Wind_Direction
19 13 8 0 355 344 335 335 337 331 321 305 273 246 230 215 213 221 222 223 218 200 185 188 210 227 227 228 230 255 344 193 193 156 113 201 153 105 104 138 106 118 140 147 149
20 14 8 5 358 346 336 341 345 348 355 9 359 207 205 201 206 232 230 220 210 187 182 196 208 221 241 249 191 270 327 24 60 120 154 215 179 143 144 119 114 101 119 144 150
18 15 10 4 1 350 341 348 5 30 47 58 61 86 166 164 211 195 221 215 199 188 199 217 258 245 275 265 44 10 20 73 90 112 142 136 120 190 149 132 130 137 144 150 155
16 13 11 6 360 351 346 354 13 27 46 49 47 92 148 167 209 205 208 199 189 187 227 222 236 241 262 276 58 234 61 72 115 128 150 145 243 155 62 185 113 139 152 155 161
14 10 8 3 356 347 340 344 350 19 37 43 43 118 171 229 71 220 185 188 180 197 217 220 241 254 276 350 141 101 105 111 129 113 100 133 148 80 161 122 138 143 153 161 165
12 8 3 359 350 340 329 319 306 332 11 29 28 52 226 244 134 180 164 178 182 197 214 223 255 323 293 320 4 112 123 131 149 139 121 109 9 241 189 151 144 153 159 165 165
7 4 0 355 346 334 320 298 280 288 303 341 358 317 246 17 166 198 187 193 198 205 224 216 247 260 279 141 121 150 152 151 144 140 118 87 348 235 249 159 158 164 160 161 160
2 359 357 351 341 325 309 288 286 267 263 286 326 231 306 175 200 204 196 198 205 207 212 217 246 269 258 140 190 208 131 288 132 143 146 129 211 105 289 159 173 167 156 164 163
358 355 352 348 338 317 300 309 284 283 254 261 322 236 191 231 199 196 195 199 197 199 214 230 245 243 217 225 197 178 208 161 135 172 145 167 132 213 202 201 211 172 166 168 178
351 351 348 344 336 307 290 315 284 278 235 242 238 246 196 211 166 175 186 192 184 188 205 224 230 233 231 240 151 64 319 136 152 161 172 193 149 171 195 211 193 237 166 178 182
341 344 345 340 334 301 274 310 276 214 221 245 260 254 145 153 161 176 163 167 180 190 206 204 223 223 229 178 87 158 144 143 101 137 187 202 172 173 183 221 178 228 180 183 191
334 336 340 337 332 291 228 258 357 344 295 224 228 231 191 172 184 172 175 191 188 202 216 181 234 241 266 322 186 166 303 66 100 149 237 186 170 167 183 199 195 196 228 204 194
329 332 334 336 336 291 259 260 278 328 263 200 205 209 196 199 212 182 194 215 196 214 205 237 213 240 208 239 273 251 195 187 326 177 228 223 181 165 172 192 201 200 220 201 200
324 327 330 336 341 297 276 233 291 314 270 172 186 204 186 198 217 185 197 204 210 229 221 227 252 201 222 245 227 251 224 162 238 261 114 314 198 247 165 188 189 196 203 209 207
321 320 325 320 290 270 249 263 289 287 274 139 157 175 182 203 121 193 194 205 238 216 223 223 228 234 227 229 230 257 210 235 266 259 156 248 114 206 213 188 196 209 204 202 197
319 315 316 320 288 251 274 254 271 231 250 159 149 189 185 210 192 143 184 215 243 228 217 264 207 211 225 223 236 243 222 227 226 245 258 203 260 197 168 187 175 178 210 205 187
319 312 303 289 219 270 229 205 222 242 86 171 176 182 198 192 181 176 191 203 211 214 210 214 220 220 241 229 201 222 220 227 219 221 240 126 271 132 154 154 130 147 175 204 217
323 314 297 261 237 240 200 220 242 257 239 71 192 189 206 191 204 189 195 217 222 249 263 203 188 205 184 229 186 211 226 242 208 332 181 163 237 164 128 121 126 141 144 168 202
330 332 292 313 240 205 214 222 224 250 289 215 215 218 203 219 220 202 217 221 218 215 254 208 266 166 189 223 242 191 228 257 181 241 224 211 204 158 157 164 153 160 160 172 194
334 298 227 289 207 188 223 241 244 264 326 293 263 209 230 208 198 236 214 218 229 195 242 300 171 178 189 234 237 274 220 240 219 254 259 300 175 117 153 176 167 166 182 153 164
343 271 192 269 163 207 225 232 236 244 233 261 257 259 229 256 205 220 229 213 207 189 208 258 259 166 164 206 216 203 236 257 292 288 296 232 224 164 168 148 174 184 148 153 156
299 265 184 167 219 219 232 240 265 264 235 252 265 289 263 255 265 216 224 235 183 230 192 226 257 189 202 206 224 272 209 226 227 229 264 303 76 90 105 136 173 140 165 156 151
298 286 257 210 253 230 235 259 264 256 253 235 243 248 253 262 263 262 249 232 247 220 221 224 240 254 219 173 203 237 253 267 275 275 164 267 113 124 123 122 139 153 180 174 164
292 269 186 223 261 286 300 259 256 221 262 272 263 263 260 247 256 256 248 223 226 249 342 281 250 245 238 354 310 205 229 239 238 246 243 273 127 152 146 153 159 163 172 169 169
249 331 339 268 207 297 299 285 291 260 210 265 237 245 244 243 246 239 243 260 192 222 250 243 249 267 273 182 254 197 203 217 229 258 278 304 298 147 150 169 176 167 174 172 172
310 338 336 283 276 266 256 255 254 261 271 254 234 262 231 244 259 258 242 249 247 199 211 230 239 253 261 269 209 240 239 254 256 226 265 279 274 312 111 131 172 168 178 184 174
332 292 277 288 268 256 259 276 271 306 291 276 294 302 266 259 305 315 312 301 296 278 264 233 238 243 249 260 232 230 248 253 256 250 244 249 270 142 136 166 185 177 186 192 192